When you browse on this site, cookies collect data to enhance your experience and personalize the content and advertising you see.
Visit our Privacy Policy to learn more. By continuing to use the site, you agree to this use of cookies and data.
  • In Austria
  • List of Countries
  • For 7 days
  • Water Temperature
  • Weather Map
  • News
  • Weather Widgets
  • user-avatar
    Login

    Hourly Weather Tlahuelilpan

    Today, 19 August, Monday

    Time Temperature Precipitation Wind Pressure Humidity
    00:00 +16°C° 0 mm 1 mps 596 mmHg 97%
    01:00 +16°C° 0 mm 1 mps 596 mmHg 97%
    02:00 +15°C° 0 mm 1 mps 595 mmHg 97%
    03:00 +16°C° 0 mm 1 mps 596 mmHg 96%
    04:00 +16°C° 0 mm 1 mps 596 mmHg 95%
    05:00 +16°C° 0 mm 1 mps 596 mmHg 94%
    06:00 +18°C° 0 mm 1 mps 597 mmHg 89%
    07:00 +19°C° 0 mm 1 mps 597 mmHg 83%
    08:00 +19°C° 0 mm 1 mps 597 mmHg 77%
    09:00 +20°C° 0 mm 2 mps 598 mmHg 72%
    10:00 +21°C° 0 mm 3 mps 598 mmHg 66%
    11:00 +22°C° 0 mm 4 mps 598 mmHg 60%
    12:00 +23°C° 0.3 mm 5 mps 598 mmHg 61%
    13:00 +23°C° 0.3 mm 6 mps 597 mmHg 61%
    14:00 +23°C° 0.3 mm 7 mps 597 mmHg 62%
    15:00 +22°C° 0.2 mm 7 mps 597 mmHg 65%
    16:00 +21°C° 0.2 mm 6 mps 596 mmHg 69%
    17:00 +20°C° 0.2 mm 6 mps 596 mmHg 72%
    18:00 +17°C° 0 mm 5 mps 596 mmHg 79%
    19:00 +17°C° 0 mm 3 mps 596 mmHg 85%
    20:00 +16°C° 0 mm 2 mps 596 mmHg 92%
    21:00 +15°C° 0 mm 2 mps 596 mmHg 93%
    22:00 +15°C° 0 mm 1 mps 596 mmHg 94%
    23:00 +14°C° 0 mm 1 mps 596 mmHg 96%

    Tomorrow, 20 August, Tuesday

    Time Temperature Precipitation Wind Pressure Humidity
    00:00 +14°C° 0 mm 1 mps 596 mmHg 95%
    01:00 +14°C° 0 mm 1 mps 595 mmHg 95%
    02:00 +13°C° 0 mm 1 mps 595 mmHg 95%
    03:00 +13°C° 0 mm 1 mps 595 mmHg 95%
    04:00 +13°C° 0 mm 1 mps 595 mmHg 95%
    05:00 +11°C° 0 mm 0 mps 595 mmHg 94%
    06:00 +13°C° 0 mm 0 mps 596 mmHg 87%
    07:00 +15°C° 0 mm 1 mps 597 mmHg 79%
    08:00 +16°C° 0 mm 1 mps 597 mmHg 71%
    09:00 +19°C° 0 mm 1 mps 598 mmHg 64%
    10:00 +20°C° 0 mm 2 mps 598 mmHg 57%
    11:00 +22°C° 0 mm 3 mps 599 mmHg 50%
    12:00 +22°C° 0 mm 4 mps 598 mmHg 53%
    13:00 +23°C° 0 mm 5 mps 598 mmHg 55%
    14:00 +23°C° 0 mm 6 mps 597 mmHg 58%
    15:00 +22°C° 0.3 mm 6 mps 597 mmHg 63%
    16:00 +20°C° 0.3 mm 6 mps 597 mmHg 69%
    17:00 +19°C° 0.3 mm 6 mps 596 mmHg 75%
    18:00 +17°C° 0 mm 5 mps 596 mmHg 81%
    19:00 +16°C° 0 mm 3 mps 596 mmHg 87%
    20:00 +15°C° 0 mm 2 mps 596 mmHg 93%
    21:00 +15°C° 0 mm 1 mps 596 mmHg 94%
    22:00 +15°C° 0 mm 1 mps 597 mmHg 95%
    23:00 +14°C° 0 mm 1 mps 597 mmHg 96%

    Day after tomorrow, 21 August, Wednesday

    Time Temperature Precipitation Wind Pressure Humidity
    00:00 +14°C° 0 mm 1 mps 596 mmHg 95%
    01:00 +14°C° 0 mm 1 mps 596 mmHg 95%
    02:00 +14°C° 0 mm 1 mps 596 mmHg 95%
    03:00 +13°C° 0 mm 0 mps 596 mmHg 95%
    04:00 +12°C° 0 mm 0 mps 596 mmHg 95%
    05:00 +12°C° 0 mm 0 mps 595 mmHg 95%
    06:00 +13°C° 0 mm 0 mps 596 mmHg 89%
    07:00 +15°C° 0 mm 0 mps 597 mmHg 83%
    08:00 +16°C° 0 mm 0 mps 598 mmHg 77%
    09:00 +19°C° 0 mm 1 mps 598 mmHg 71%
    10:00 +20°C° 0 mm 2 mps 598 mmHg 65%
    11:00 +21°C° 0 mm 2 mps 598 mmHg 59%
    12:00 +22°C° 0.1 mm 3 mps 598 mmHg 58%
    13:00 +23°C° 0.1 mm 4 mps 598 mmHg 57%
    14:00 +23°C° 0.1 mm 5 mps 597 mmHg 56%
    15:00 +22°C° 0.5 mm 5 mps 597 mmHg 62%
    16:00 +21°C° 0.5 mm 5 mps 597 mmHg 68%
    17:00 +20°C° 0.5 mm 5 mps 596 mmHg 75%
    18:00 +18°C° 0.1 mm 4 mps 596 mmHg 80%
    19:00 +17°C° 0.1 mm 3 mps 596 mmHg 86%
    20:00 +15°C° 0.1 mm 2 mps 596 mmHg 91%
    21:00 +15°C° 0 mm 1 mps 596 mmHg 92%
    22:00 +14°C° 0 mm 1 mps 596 mmHg 93%
    23:00 +13°C° 0 mm 0 mps 596 mmHg 94%

    22 August, Thursday

    Time Temperature Precipitation Wind Pressure Humidity
    00:00 +13°C° 0 mm 0 mps 595 mmHg 95%
    01:00 +12°C° 0 mm 0 mps 595 mmHg 95%
    02:00 +12°C° 0 mm 0 mps 594 mmHg 95%
    03:00 +12°C° 0 mm 0 mps 594 mmHg 95%
    04:00 +12°C° 0 mm 0 mps 594 mmHg 95%
    05:00 +12°C° 0 mm 0 mps 595 mmHg 94%
    06:00 +15°C° 0 mm 1 mps 596 mmHg 88%
    07:00 +18°C° 0 mm 1 mps 597 mmHg 81%
    08:00 +19°C° 0 mm 1 mps 598 mmHg 74%
    09:00 +21°C° 0.3 mm 1 mps 598 mmHg 69%
    10:00 +22°C° 0.3 mm 1 mps 599 mmHg 63%
    11:00 +24°C° 0.3 mm 1 mps 599 mmHg 58%
    12:00 +24°C° 1.4 mm 1 mps 598 mmHg 57%
    13:00 +25°C° 1.4 mm 2 mps 598 mmHg 57%
    14:00 +25°C° 1.4 mm 3 mps 597 mmHg 57%
    15:00 +24°C° 1.8 mm 2 mps 597 mmHg 63%
    16:00 +23°C° 1.8 mm 2 mps 597 mmHg 69%
    17:00 +21°C° 1.8 mm 2 mps 596 mmHg 75%
    18:00 +20°C° 1.3 mm 2 mps 597 mmHg 79%
    19:00 +20°C° 1.3 mm 1 mps 597 mmHg 83%
    20:00 +19°C° 1.3 mm 1 mps 597 mmHg 87%
    21:00 +19°C° 0.9 mm 1 mps 597 mmHg 88%
    22:00 +17°C° 0.9 mm 2 mps 597 mmHg 90%
    23:00 +17°C° 0.9 mm 2 mps 597 mmHg 91%

    23 August, Friday

    Time Temperature Precipitation Wind Pressure Humidity
    00:00 +16°C° 0.2 mm 2 mps 597 mmHg 91%
    01:00 +16°C° 0.2 mm 1 mps 596 mmHg 91%
    02:00 +16°C° 0.2 mm 1 mps 596 mmHg 91%
    03:00 +16°C° 0.1 mm 1 mps 596 mmHg 91%
    04:00 +15°C° 0.1 mm 1 mps 596 mmHg 91%
    05:00 +15°C° 0.1 mm 1 mps 596 mmHg 91%
    06:00 +16°C° 0 mm 1 mps 597 mmHg 85%
    07:00 +18°C° 0 mm 1 mps 598 mmHg 79%
    08:00 +19°C° 0 mm 1 mps 598 mmHg 74%
    09:00 +21°C° 0.1 mm 1 mps 599 mmHg 68%
    10:00 +22°C° 0.1 mm 1 mps 599 mmHg 63%
    11:00 +24°C° 0.1 mm 1 mps 599 mmHg 57%
    12:00 +24°C° 0.8 mm 1 mps 599 mmHg 56%
    13:00 +25°C° 0.8 mm 1 mps 598 mmHg 55%
    14:00 +25°C° 0.8 mm 1 mps 598 mmHg 54%
    15:00 +23°C° 2.5 mm 1 mps 597 mmHg 65%
    16:00 +21°C° 2.5 mm 1 mps 597 mmHg 77%
    17:00 +18°C° 2.5 mm 2 mps 596 mmHg 88%
    18:00 +18°C° 4.8 mm 1 mps 596 mmHg 89%
    19:00 +16°C° 4.8 mm 1 mps 596 mmHg 91%
    20:00 +15°C° 4.8 mm 1 mps 596 mmHg 92%
    21:00 +14°C° 0.1 mm 0 mps 597 mmHg 91%
    22:00 +14°C° 0.1 mm 0 mps 597 mmHg 91%
    23:00 +15°C° 0.1 mm 0 mps 597 mmHg 90%

    24 August, Saturday

    Time Temperature Precipitation Wind Pressure Humidity
    00:00 +14°C° 0 mm 0 mps 597 mmHg 90%
    01:00 +14°C° 0 mm 0 mps 597 mmHg 91%
    02:00 +14°C° 0 mm 0 mps 597 mmHg 91%
    03:00 +14°C° 0 mm 0 mps 597 mmHg 90%
    04:00 +14°C° 0 mm 0 mps 597 mmHg 90%
    05:00 +14°C° 0 mm 0 mps 597 mmHg 90%
    06:00 +15°C° 0 mm 0 mps 597 mmHg 85%
    07:00 +16°C° 0 mm 0 mps 598 mmHg 81%
    08:00 +17°C° 0 mm 0 mps 599 mmHg 76%
    09:00 +20°C° 0.5 mm 1 mps 599 mmHg 72%
    10:00 +21°C° 0.5 mm 1 mps 599 mmHg 68%
    11:00 +22°C° 0.5 mm 1 mps 599 mmHg 63%
    12:00 +23°C° 0.6 mm 2 mps 599 mmHg 61%
    13:00 +22°C° 0.6 mm 3 mps 599 mmHg 60%
    14:00 +24°C° 0.6 mm 3 mps 598 mmHg 58%
    15:00 +22°C° 0.1 mm 3 mps 598 mmHg 61%
    16:00 +23°C° 0.1 mm 2 mps 598 mmHg 64%
    17:00 +21°C° 0.1 mm 2 mps 597 mmHg 67%
    18:00 +21°C° 0 mm 1 mps 597 mmHg 71%
    19:00 +19°C° 0 mm 1 mps 597 mmHg 74%
    20:00 +18°C° 0 mm 1 mps 597 mmHg 78%
    21:00 +16°C° 0 mm 1 mps 597 mmHg 79%
    22:00 +16°C° 0 mm 1 mps 597 mmHg 80%
    23:00 +15°C° 0 mm 1 mps 597 mmHg 82%
    Show more